Weather History for Greenwood, MS

Change the Weather History Date:

Tuesday, December 11, 2012

  Actual Average Record
Temperature  
Mean Temperature 37 °F 47 °F  
Max Temperature 48 °F 57 °F 80 °F (2007)
Min Temperature 26 °F 36 °F 18 °F (1962)
Degree Days  
Heating Degree Days 28 19  
Month to date heating degree days 62 191  
Since 1 July heating degree days 659 659  
Cooling Degree Days 0 0  
Month to date cooling degree days 11 0  
Year to date cooling degree days 2252 2159  
Moisture  
Dew Point 28 °F    
Average Humidity 73    
Maximum Humidity 100    
Minimum Humidity 45    
Precipitation  
Precipitation 0.00 in 0.20 in 2.93 in (1963)
Month to date precipitation 2.56 2.19  
Year to date precipitation 39.75 48.31  
Sea Level Pressure  
Sea Level Pressure 30.17 in    
Wind  
Wind Speed 4 mph (North)    
Max Wind Speed 12 mph    
Max Gust Speed 16 mph    
Visibility 10 miles    
Events      
T = Trace of Precipitation, MM = Missing Value Source: NWS Daily Summary

Daily Weather History Graph

Daily Weather History Graph

Search for Another Location

Airport:

Trip Planner

Search our weather history database for the weather conditions in past years. The results will help you decide how hot, cold, wet, or windy it might be!

Date:

Astronomy

Dec. 11, 2012 Rise Set
Actual Time 6:54 AM CST 4:53 PM CST
Civil Twilight 6:27 AM CST 5:20 PM CST
Nautical Twilight 5:56 AM CST 5:51 PM CST
Astronomical Twilight 5:25 AM CST 6:21 PM CST
Moon 4:52 AM CST (12/11) 3:30 PM CST (12/11)
Length of Visible Light 10h 53m
Length of Day
9h 58m
Waning Crescent, 4% of the Moon is Illuminated
Dec 11
Waning Crescent
Dec 13
New
Dec 19
First Quarter
Dec 28
Full
Jan 4
Last Quarter

Hourly Weather History & Observations

Time (CST) Temp. Windchill Dew Point Humidity Pressure Visibility Wind Dir Wind Speed Gust Speed Precip Events Conditions
12:53 AM 30.0 °F 25.2 °F 27.0 °F 88% 30.09 in 10.0 mi North 4.6 mph - N/A   Clear
1:53 AM 30.0 °F 26.5 °F 28.0 °F 92% 30.09 in 10.0 mi North 3.5 mph - N/A   Clear
2:53 AM 30.0 °F - 27.0 °F 88% 30.09 in 10.0 mi Calm Calm - N/A   Scattered Clouds
3:06 AM 28.4 °F 24.6 °F 26.6 °F 93% 30.09 in 10.0 mi North 3.5 mph - N/A   Mostly Cloudy
3:53 AM 30.9 °F 27.5 °F 28.0 °F 89% 30.11 in 10.0 mi NNW 3.5 mph - N/A   Overcast
4:53 AM 30.0 °F - 28.0 °F 92% 30.12 in 10.0 mi Calm Calm - N/A   Scattered Clouds
5:53 AM 27.0 °F - 26.1 °F 96% 30.14 in 10.0 mi Calm Calm - N/A   Clear
6:53 AM 27.0 °F 23.0 °F 25.0 °F 92% 30.15 in 10.0 mi NNE 3.5 mph - N/A   Clear
7:53 AM 30.9 °F - 28.0 °F 89% 30.18 in 10.0 mi Calm Calm - N/A   Partly Cloudy
8:53 AM 35.1 °F 27.9 °F 28.0 °F 76% 30.19 in 10.0 mi NNE 9.2 mph - N/A   Clear
9:53 AM 37.0 °F 31.6 °F 30.0 °F 76% 30.21 in 10.0 mi North 6.9 mph - N/A   Clear
10:53 AM 41.0 °F 36.4 °F 30.0 °F 65% 30.21 in 10.0 mi NNE 6.9 mph - N/A   Clear
11:53 AM 43.0 °F 39.5 °F 28.9 °F 58% 30.18 in 10.0 mi North 5.8 mph - N/A   Clear
12:53 PM 46.0 °F 41.4 °F 27.0 °F 47% 30.17 in 10.0 mi NNE 9.2 mph - N/A   Clear
1:53 PM 46.9 °F - 28.0 °F 48% 30.15 in 10.0 mi North 9.2 mph - N/A   Clear
2:53 PM 48.0 °F - 28.0 °F 46% 30.14 in 10.0 mi North 8.1 mph - N/A   Clear
3:53 PM 46.0 °F 43.9 °F 28.0 °F 50% 30.15 in 10.0 mi NNW 4.6 mph - N/A   Clear
4:53 PM 42.1 °F 39.2 °F 28.0 °F 58% 30.16 in 10.0 mi NNW 4.6 mph - N/A   Clear
6:53 PM 39.0 °F 34.8 °F 30.0 °F 70% 30.20 in 10.0 mi North 5.8 mph - N/A   Clear
7:53 PM 35.1 °F 32.2 °F 30.0 °F 82% 30.22 in 10.0 mi NNE 3.5 mph - N/A   Clear
8:53 PM 33.1 °F 27.7 °F 28.9 °F 85% 30.23 in 10.0 mi North 5.8 mph - N/A   Clear
9:53 PM 32.0 °F 28.7 °F 28.9 °F 88% 30.25 in 10.0 mi North 3.5 mph - N/A   Clear
10:53 PM 30.9 °F - 28.9 °F 92% 30.26 in 10.0 mi Calm Calm - N/A   Clear
11:53 PM 30.0 °F 26.5 °F 28.0 °F 92% 30.26 in 10.0 mi NNE 3.5 mph - N/A   Clear